• In Hungary
  • List of Countries
  • For 7 days
  • Water Temperature
  • Satellite Maps
  • Weather Map
  • News
  • Weather Widgets
  • user-avatar
    Login

    Hourly Weather Tarija

    Today, 15 December, Friday

    Time Temperature Precipitation Wind Pressure Humidity
    00:00 +19°C° 0 mm 2 mps 599 mmHg 80%
    01:00 +18°C° 0 mm 2 mps 599 mmHg 81%
    02:00 +18°C° 0 mm 2 mps 598 mmHg 83%
    03:00 +18°C° 0 mm 2 mps 598 mmHg 83%
    04:00 +18°C° 0 mm 1 mps 598 mmHg 83%
    05:00 +18°C° 0 mm 1 mps 597 mmHg 83%
    06:00 +19°C° 0 mm 1 mps 598 mmHg 77%
    07:00 +21°C° 0 mm 1 mps 599 mmHg 70%
    08:00 +22°C° 0 mm 1 mps 599 mmHg 64%
    09:00 +24°C° 0 mm 2 mps 600 mmHg 58%
    10:00 +25°C° 0 mm 2 mps 600 mmHg 52%
    11:00 +27°C° 0 mm 3 mps 600 mmHg 46%
    12:00 +28°C° 0 mm 3 mps 600 mmHg 44%
    13:00 +28°C° 0 mm 4 mps 600 mmHg 41%
    14:00 +29°C° 0 mm 4 mps 599 mmHg 39%
    15:00 +29°C° 0 mm 5 mps 598 mmHg 40%
    16:00 +28°C° 0 mm 5 mps 598 mmHg 42%
    17:00 +28°C° 0 mm 5 mps 597 mmHg 43%
    18:00 +26°C° 0 mm 4 mps 597 mmHg 48%
    19:00 +24°C° 0 mm 3 mps 597 mmHg 53%
    20:00 +23°C° 0 mm 2 mps 596 mmHg 57%
    21:00 +21°C° 0 mm 2 mps 597 mmHg 60%
    22:00 +21°C° 0 mm 2 mps 597 mmHg 62%
    23:00 +21°C° 0 mm 1 mps 597 mmHg 65%

    Tomorrow, 16 December, Saturday

    Time Temperature Precipitation Wind Pressure Humidity
    00:00 +20°C° 0 mm 2 mps 597 mmHg 66%
    01:00 +20°C° 0 mm 2 mps 596 mmHg 67%
    02:00 +19°C° 0 mm 2 mps 596 mmHg 69%
    03:00 +19°C° 0 mm 2 mps 595 mmHg 69%
    04:00 +19°C° 0 mm 2 mps 595 mmHg 70%
    05:00 +19°C° 0 mm 2 mps 595 mmHg 70%
    06:00 +20°C° 0 mm 2 mps 596 mmHg 64%
    07:00 +23°C° 0 mm 2 mps 596 mmHg 57%
    08:00 +24°C° 0 mm 2 mps 597 mmHg 51%
    09:00 +26°C° 0 mm 3 mps 597 mmHg 45%
    10:00 +28°C° 0 mm 3 mps 598 mmHg 39%
    11:00 +30°C° 0 mm 4 mps 598 mmHg 33%
    12:00 +30°C° 0 mm 4 mps 598 mmHg 31%
    13:00 +32°C° 0 mm 4 mps 597 mmHg 30%
    14:00 +33°C° 0 mm 5 mps 597 mmHg 29%
    15:00 +32°C° 0.1 mm 5 mps 596 mmHg 31%
    16:00 +32°C° 0.1 mm 5 mps 596 mmHg 33%
    17:00 +30°C° 0.1 mm 5 mps 595 mmHg 35%
    18:00 +28°C° 0.5 mm 4 mps 595 mmHg 39%
    19:00 +27°C° 0.5 mm 3 mps 595 mmHg 43%
    20:00 +25°C° 0.5 mm 2 mps 595 mmHg 47%
    21:00 +25°C° 0.1 mm 2 mps 595 mmHg 48%
    22:00 +24°C° 0.1 mm 2 mps 596 mmHg 49%
    23:00 +24°C° 0.1 mm 2 mps 596 mmHg 51%

    Day after tomorrow, 17 December, Sunday

    Time Temperature Precipitation Wind Pressure Humidity
    00:00 +24°C° 0 mm 2 mps 595 mmHg 52%
    01:00 +23°C° 0 mm 2 mps 594 mmHg 54%
    02:00 +23°C° 0 mm 1 mps 594 mmHg 55%
    03:00 +23°C° 0 mm 1 mps 594 mmHg 56%
    04:00 +22°C° 0 mm 1 mps 594 mmHg 57%
    05:00 +22°C° 0 mm 1 mps 594 mmHg 58%
    06:00 +24°C° 0 mm 1 mps 595 mmHg 52%
    07:00 +25°C° 0 mm 2 mps 596 mmHg 45%
    08:00 +27°C° 0 mm 2 mps 598 mmHg 39%
    09:00 +28°C° 0 mm 3 mps 598 mmHg 36%
    10:00 +30°C° 0 mm 4 mps 599 mmHg 33%
    11:00 +32°C° 0 mm 6 mps 600 mmHg 30%
    12:00 +30°C° 0.3 mm 7 mps 600 mmHg 37%
    13:00 +29°C° 0.3 mm 7 mps 599 mmHg 43%
    14:00 +28°C° 0.3 mm 8 mps 599 mmHg 50%
    15:00 +24°C° 5.7 mm 7 mps 598 mmHg 62%
    16:00 +22°C° 5.7 mm 5 mps 597 mmHg 74%
    17:00 +20°C° 5.7 mm 4 mps 596 mmHg 86%
    18:00 +20°C° 4.8 mm 4 mps 597 mmHg 88%
    19:00 +19°C° 4.8 mm 4 mps 598 mmHg 89%
    20:00 +19°C° 4.8 mm 4 mps 598 mmHg 91%
    21:00 +19°C° 5.2 mm 4 mps 599 mmHg 92%
    22:00 +18°C° 5.2 mm 4 mps 599 mmHg 93%
    23:00 +18°C° 5.2 mm 3 mps 600 mmHg 94%

    18 December, Monday

    Time Temperature Precipitation Wind Pressure Humidity
    00:00 +17°C° 2.6 mm 3 mps 600 mmHg 95%
    01:00 +17°C° 2.6 mm 3 mps 599 mmHg 95%
    02:00 +17°C° 2.6 mm 2 mps 599 mmHg 95%
    03:00 +17°C° 2.4 mm 2 mps 599 mmHg 95%
    04:00 +16°C° 2.4 mm 2 mps 599 mmHg 95%
    05:00 +16°C° 2.4 mm 2 mps 598 mmHg 96%
    06:00 +16°C° 2.2 mm 1 mps 599 mmHg 95%
    07:00 +16°C° 2.2 mm 1 mps 599 mmHg 95%
    08:00 +16°C° 2.2 mm 1 mps 600 mmHg 95%
    09:00 +18°C° 1.4 mm 1 mps 600 mmHg 91%
    10:00 +19°C° 1.4 mm 1 mps 600 mmHg 87%
    11:00 +19°C° 1.4 mm 1 mps 600 mmHg 83%
    12:00 +21°C° 0.2 mm 1 mps 599 mmHg 74%
    13:00 +23°C° 0.2 mm 2 mps 599 mmHg 66%
    14:00 +25°C° 0.2 mm 2 mps 599 mmHg 57%
    15:00 +25°C° 0.7 mm 2 mps 599 mmHg 60%
    16:00 +25°C° 0.7 mm 3 mps 598 mmHg 63%
    17:00 +24°C° 0.7 mm 3 mps 598 mmHg 66%
    18:00 +22°C° 0.3 mm 3 mps 598 mmHg 72%
    19:00 +21°C° 0.3 mm 2 mps 598 mmHg 79%
    20:00 +20°C° 0.3 mm 2 mps 598 mmHg 85%
    21:00 +19°C° 0.3 mm 2 mps 598 mmHg 87%
    22:00 +19°C° 0.3 mm 2 mps 598 mmHg 89%
    23:00 +19°C° 0.3 mm 2 mps 598 mmHg 90%

    19 December, Tuesday

    Time Temperature Precipitation Wind Pressure Humidity
    00:00 +18°C° 0.1 mm 2 mps 598 mmHg 91%
    01:00 +18°C° 0.1 mm 2 mps 597 mmHg 92%
    02:00 +18°C° 0.1 mm 2 mps 597 mmHg 93%
    03:00 +18°C° 0.4 mm 2 mps 597 mmHg 93%
    04:00 +18°C° 0.4 mm 2 mps 597 mmHg 93%
    05:00 +17°C° 0.4 mm 2 mps 597 mmHg 94%
    06:00 +18°C° 0.3 mm 2 mps 597 mmHg 90%
    07:00 +19°C° 0.3 mm 2 mps 598 mmHg 86%
    08:00 +20°C° 0.3 mm 2 mps 599 mmHg 82%
    09:00 +21°C° 0.2 mm 2 mps 599 mmHg 78%
    10:00 +22°C° 0.2 mm 3 mps 599 mmHg 73%
    11:00 +24°C° 0.2 mm 3 mps 599 mmHg 69%
    12:00 +24°C° 0.5 mm 3 mps 598 mmHg 67%
    13:00 +25°C° 0.5 mm 3 mps 598 mmHg 64%
    14:00 +25°C° 0.5 mm 4 mps 597 mmHg 62%
    15:00 +25°C° 0.5 mm 4 mps 597 mmHg 62%
    16:00 +25°C° 0.5 mm 4 mps 596 mmHg 61%
    17:00 +25°C° 0.5 mm 4 mps 596 mmHg 61%
    18:00 +24°C° 0.2 mm 3 mps 596 mmHg 66%
    19:00 +23°C° 0.2 mm 2 mps 596 mmHg 72%
    20:00 +21°C° 0.2 mm 2 mps 597 mmHg 77%
    21:00 +20°C° 0.2 mm 2 mps 597 mmHg 79%
    22:00 +21°C° 0.2 mm 1 mps 597 mmHg 82%
    23:00 +20°C° 0.2 mm 1 mps 597 mmHg 84%

    20 December, Wednesday

    Time Temperature Precipitation Wind Pressure Humidity
    00:00 +20°C° 0.1 mm 1 mps 597 mmHg 85%
    01:00 +20°C° 0.1 mm 1 mps 596 mmHg 86%
    02:00 +20°C° 0.1 mm 1 mps 596 mmHg 87%
    03:00 +19°C° 0 mm 1 mps 596 mmHg 87%
    04:00 +17°C° 0 mm 0 mps 596 mmHg 87%
    05:00 +17°C° 0 mm 0 mps 596 mmHg 87%
    06:00 +18°C° 0 mm 0 mps 596 mmHg 83%
    07:00 +19°C° 0 mm 0 mps 597 mmHg 79%
    08:00 +20°C° 0 mm 0 mps 597 mmHg 74%
    09:00 +23°C° 0.4 mm 1 mps 598 mmHg 69%
    10:00 +25°C° 0.4 mm 2 mps 598 mmHg 64%
    11:00 +26°C° 0.4 mm 2 mps 598 mmHg 59%
    12:00 +26°C° 1.2 mm 3 mps 597 mmHg 59%
    13:00 +27°C° 1.2 mm 3 mps 597 mmHg 59%
    14:00 +27°C° 1.2 mm 3 mps 596 mmHg 58%
    15:00 +27°C° 0.9 mm 3 mps 596 mmHg 59%
    16:00 +26°C° 0.9 mm 3 mps 595 mmHg 60%
    17:00 +26°C° 0.9 mm 3 mps 595 mmHg 60%
    18:00 +25°C° 1.1 mm 3 mps 595 mmHg 66%
    19:00 +24°C° 1.1 mm 2 mps 595 mmHg 72%
    20:00 +21°C° 1.1 mm 2 mps 595 mmHg 77%
    21:00 +22°C° 1.4 mm 1 mps 595 mmHg 80%
    22:00 +21°C° 1.4 mm 1 mps 595 mmHg 83%
    23:00 +19°C° 1.4 mm 0 mps 595 mmHg 85%
    Show more